Regional Weather Roundup
Issued by NWS Upton, NY

Home | Current Version | Previous Version | Text Only | Print | Product List | Glossary On
Versions: 1 2 3 4 5 6 7 8 9 10 11 12 13 14 15 16 17 18 19 20 21 22 23 24 25 26 27 28 29 30 31 32 33 34 35 36 37 38 39 40 41 42 43 44 45 46 47 48 49 50
000
ASUS41 KOKX 220708
RWROKX

REGIONAL WEATHER ROUNDUP
NATIONAL WEATHER SERVICE NEW YORK NY
200 AM EST WED FEB 22 2017

NOTE: "FAIR" INDICATES FEW OR NO CLOUDS BELOW 12,000 FEET WITH NO
SIGNIFICANT WEATHER AND/OR OBSTRUCTIONS TO VISIBILITY.

NYZ071-072-176-178-NJZ106-104-220800-
NEW YORK CITY METRO AREA

CITY           SKY/WX    TMP DP  RH WIND       PRES   REMARKS
Central Park   CLOUDY    44  34  67 VRB6      30.09F
Wall St Helipt NOT AVBL
LaGuardia APRT CLOUDY    45  34  65 SW8         N/A
Kennedy INTL   CLOUDY    41  38  89 S8        30.09F
Breezy Point     N/A     39 N/A N/A SW5         N/A
Newark/Liberty CLOUDY    42  34  73 S7        30.08F
Teterboro      NOT AVBL
$$

NYZ177-179-078>081-220800-
LONG ISLAND NEW YORK

CITY           SKY/WX    TMP DP  RH WIND       PRES   REMARKS
Jones Beach      N/A     41 N/A N/A SW5         N/A
Matinecock PT    N/A     41 N/A N/A SW12        N/A
Farmingdale    NOT AVBL
MacArthur/ISP  NOT AVBL
Shirley        NOT AVBL
Westhampton    NOT AVBL
Southampton    NOT AVBL
Bridgehampton  NOT AVBL
East Hampton     N/A     40  37  87 SW5       30.09F
Montauk          N/A     42  37  82 SW6       30.11F
$$

NYZ052-065-067-220800-
HUDSON VALLEY

CITY           SKY/WX    TMP DP  RH WIND       PRES   REMARKS
White Plains   NOT AVBL
Newburgh       CLOUDY    41  34  75 SW7       30.07S
Montgomery     NOT AVBL
Poughkeepsie   NOT AVBL
Albany         CLOUDY    40  30  67 S6        30.03F
$$

NJZ001-105-106-008-010-013-015-019>022-104-220800-
NEW JERSEY

CITY           SKY/WX    TMP DP  RH WIND       PRES   REMARKS
Newark/Liberty CLOUDY    42  34  73 S7        30.08F
Teterboro      NOT AVBL
Caldwell       NOT AVBL
Somerville     NOT AVBL
Linden         NOT AVBL
Sussex         NOT AVBL
Andover          N/A     40  32  73 SW5       30.05S
Trenton        NOT AVBL
Millville      NOT AVBL
Atlantic City  CLOUDY    42  37  82 CALM      30.09F
Wrightstown    PTCLDY    38  35  86 SW3       30.05F
Toms River     NOT AVBL
Belmar         NOT AVBL
$$

PAZ047>061-062-071-220800-
EASTERN PENNSYLVANIA

CITY           SKY/WX    TMP DP  RH WIND       PRES   REMARKS
Philadelphia   CLOUDY    42  36  79 S3        30.10F
Allentown      NOT AVBL
Scranton       NOT AVBL
$$

CTZ002-004>006-009-010-012-RIZ004-006-007-MAZ004-011-015-220800-
SOUTHERN NEW ENGLAND
 IN CT

CITY           SKY/WX    TMP DP  RH WIND       PRES   REMARKS
Bradley INTL   LGT RAIN  37  32  82 S7        30.08R WCI  32
Hartford       CLOUDY    39  32  76 VRB3      30.09S
Danbury        NOT AVBL
Wtrbury/Oxford CLOUDY    37  30  75 CALM      30.07S
Bridgeport     NOT AVBL
Meriden        CLOUDY    39  32  76 CALM      30.09S
New Haven      NOT AVBL
Chester        PTSUNNY   37  36  93 VRB5G12   30.06F WCI  34
Groton         PTCLDY    39  35  86 SW5       30.08F
Wilimantic     MOCLDY    35  31  85 CALM      30.09F

 IN RI

CITY           SKY/WX    TMP DP  RH WIND       PRES   REMARKS
Providence     PTCLDY    35  31  85 S6        30.09F WCI  30
Block Island   PTCLDY    40  37  89 SW8       30.10F WCI  34
Westerly       PTCLDY    40  34  79 SW5       30.10F
 IN MA

CITY           SKY/WX    TMP DP  RH WIND       PRES   REMARKS
Boston         CLOUDY    38  32  79 SW10      30.07F WCI  31
Worcester      CLOUDY    34  28  79 SW10      30.03S WCI  26
Westfield      CLOUDY    36  31  82 S6        30.06S WCI  31
Provincetown   CLOUDY    37  31  78 S9        30.09F WCI  30
Nantucket      MOCLDY    37  32  82 SW8       30.12F WCI  31
$$

ANZ330-335-338-340-345-350-353-355-220800-
COASTAL MARINE OBSERVATIONS


STATION/POSITION TIME  SKY/WX   TEMP    WIND        PRES    VSBY  WAVE
                                AIR SEA DIR/SP/G                  HT/PER
                 (UTC)          (F)     (DEG/KT/KT) (MB)    (MI)  (FT/S)
NY HARB ENTRANCE 0550            42 42  200/  8/ 10 1019.5          2/ 7
20 S FIRE ISLAND 0650            43 43  200/ 10/ 12 1018.6          2/ 6
GREAT SOUTH BAY  NOT AVBL
23 SSW MONTAUK P 0550            44 46              1020.1          2/ 3
15 E BARNEGAT LI 0630               43                N/A           2/ 5
HUDSON CANYON    0550               49              1020.4          2/ 6
KINGS POINT      0642                               1018.3
EXECUTION ROCKS  NOT AVBL
CENTRAL LI SOUND 0630            40     200/  8/ 10   N/A           0
EASTERN LI SOUND NOT AVBL
ROBBINS REEF     0648                   180/  8/  9 1018.7
$$


>>>>>>>>>>>>>>>>>>>>>>>>>>>> KEY <<<<<<<<<<<<<<<<<<<<<<<<<<<
>                                                          <
>     SKY/WX - Sky Condition/Present Weather               <
>     TMP    - Temperature in Fahrenheit                   <
>     DP     - Dew Point in Fahrenheit                     <
>     RH     - Relative Humidity in Percent                <
>     WIND   - Direction (from) and Speed in MPH           <
>     PRES   - Mean Sea Level Pressure (inches of Hg)      <
>     WCI    - Wind Chill Index                            <
>     VSB    - VISIBILITY IN MILES                         <
>     HX     - HEAT INDEX                                  <
>     TC     - TEMPERATURE IN CELSIUS                      <
>     VRB    - VARIABLE WIND DIRECTION                     <
>                                                          <
>>>>>>>>>>>>>>>>>>>>>>>>>>>> KEY <<<<<<<<<<<<<<<<<<<<<<<<<<<



USA.gov is the U.S. government's official web portal to all federal, state and local government web resources and services.